This demonstration page uses our WeatherBlox Daily Observations layout. Learn more.

Hourly Observations for May 25, 2019

Temp ( °F °C ) Dew Point ( °F °C ) Humidity (%) Winds ( mph kmh ) Pressure ( in mb ) Visibility ( mi km ) Precip ( " mm )
12:15 am 00:15 Clear 64 18 61 16 88 88 Calm 30.12 1020 10 16.09344 0 0
12:35 am 00:35 Clear 64 18 59 15 83 83 Calm 30.12 1020 10 16.09344 0 0
12:55 am 00:55 Clear 64 18 61 16 88 88 Calm 30.12 1020 10 16.09344 0 0
1:15 am 01:15 Clear 64 18 61 16 88 88 Calm 30.12 1020 10 16.09344 0 0
1:35 am 01:35 Clear 64 18 59 15 83 83 Calm 30.12 1020 10 16.09344 0 0
1:55 am 01:55 Clear 64 18 61 16 88 88 Calm 30.12 1020 10 16.09344 0 0
2:15 am 02:15 Clear 64 18 59 15 83 83 NNW 3 6 30.12 1020 10 16.09344 0 0
2:35 am 02:35 Partly Cloudy 63 17 61 16 94 94 Calm 30.12 1020 10 16.09344 0 0
2:55 am 02:55 Partly Cloudy 63 17 61 16 94 94 Calm 30.12 1020 10 16.09344 0 0
3:15 am 03:15 Mostly Cloudy 63 17 59 15 88 88 Calm 30.15 1021 10 16.09344 0 0
3:35 am 03:35 Cloudy 64 18 61 16 88 88 Calm 30.15 1021 10 16.09344 0 0
3:55 am 03:55 Cloudy 64 18 61 16 88 88 Calm 30.15 1021 10 16.09344 0 0
4:15 am 04:15 Cloudy 64 18 59 15 83 83 ENE 3 6 30.15 1021 10 16.09344 0 0
4:35 am 04:35 Cloudy 64 18 59 15 83 83 Calm 30.15 1021 10 16.09344 0 0
4:55 am 04:55 Cloudy 66 19 59 15 78 78 Calm 30.18 1022 10 16.09344 0 0
5:15 am 05:15 Cloudy 66 19 59 15 78 78 Calm 30.18 1022 10 16.09344 0 0
5:35 am 05:35 Cloudy 68 20 59 15 73 73 SE 3 6 30.18 1022 10 16.09344 0 0
5:55 am 05:55 Cloudy 68 20 59 15 73 73 Calm 30.18 1022 10 16.09344 0 0
6:15 am 06:15 Cloudy 66 19 59 15 78 78 Calm 30.18 1022 10 16.09344 0 0
6:35 am 06:35 Cloudy 66 19 59 15 78 78 Calm 30.21 1023 10 16.09344 0 0
6:55 am 06:55 Cloudy 66 19 59 15 78 78 SE 5 7 30.21 1023 10 16.09344 0 0
7:15 am 07:15 Cloudy 68 20 59 15 73 73 SSE 6 9 30.21 1023 10 16.09344 0 0
7:35 am 07:35 Cloudy 68 20 57 14 69 69 SSE 9 15 30.21 1023 10 16.09344 0 0
7:55 am 07:55 Mostly Cloudy 70 21 57 14 64 64 SSE 12 19 30.21 1023 10 16.09344 0 0
8:15 am 08:15 Partly Cloudy 70 21 57 14 64 64 SSE 9 15 30.21 1023 10 16.09344 0 0
8:35 am 08:35 Sunny 70 21 57 14 64 64 S 7 11 30.21 1023 10 16.09344 0 0
8:55 am 08:55 Partly Cloudy 70 21 57 14 64 64 SSE 8 13 30.21 1023 10 16.09344 0 0
9:15 am 09:15 Partly Cloudy 70 21 59 15 69 69 SSE 9 15 30.21 1023 10 16.09344 0 0
9:35 am 09:35 Sunny 72 22 59 15 65 65 SSE 10 17 30.21 1023 10 16.09344 0 0
9:55 am 09:55 Sunny 73 23 59 15 61 61 SSE 13 20 30.21 1023 10 16.09344 0 0
10:15 am 10:15 Mostly Cloudy 73 23 59 15 61 61 S 9 15 30.21 1023 10 16.09344 0 0
10:35 am 10:35 Cloudy 73 23 61 16 65 65 S 10 17 30.21 1023 10 16.09344 0 0
10:55 am 10:55 Partly Cloudy 75 24 61 16 61 61 S 8 13 30.21 1023 10 16.09344 0 0
11:15 am 11:15 Sunny 75 24 61 16 61 61 S 8 13 30.18 1022 10 16.09344 0 0
11:35 am 11:35 Partly Cloudy 77 25 61 16 57 57 SSE 7 11 30.18 1022 10 16.09344 0 0
11:55 am 11:55 Partly Cloudy 77 25 61 16 57 57 SSE 9 15 30.18 1022 10 16.09344 0 0
12:15 pm 12:15 Sunny 79 26 63 17 58 58 S 8 13 30.18 1022 10 16.09344 0 0
12:35 pm 12:35 Sunny 79 26 63 17 58 58 S 9 15 30.18 1022 10 16.09344 0 0
12:55 pm 12:55 Sunny 81 27 63 17 54 54 S 12 19 30.15 1021 10 16.09344 0 0
1:15 pm 13:15 Sunny 81 27 64 18 58 58 S 10 17 30.15 1021 10 16.09344 0 0
1:35 pm 13:35 Sunny 82 28 63 17 51 51 SSW 8 13 30.12 1020 10 16.09344 0 0
1:55 pm 13:55 Sunny 82 28 64 18 55 55 SSE 14 22 30.12 1020 10 16.09344 0 0
2:15 pm 14:15 Sunny 82 28 63 17 51 51 SSE 15 24 30.12 1020 10 16.09344 0 0
2:35 pm 14:35 Sunny 82 28 64 18 55 55 SSW 12 19 30.12 1020 10 16.09344 0 0
2:55 pm 14:55 Sunny 82 28 64 18 55 55 S 8 13 30.09 1019 10 16.09344 0 0
3:15 pm 15:15 Sunny 84 29 64 18 51 51 S 15 24 30.09 1019 10 16.09344 0 0
3:35 pm 15:35 Sunny 84 29 64 18 51 51 S 12 19 30.09 1019 10 16.09344 0 0
3:55 pm 15:55 Partly Cloudy 84 29 64 18 51 51 SSE 13 20 30.09 1019 10 16.09344 0 0
4:15 pm 16:15 Partly Cloudy 84 29 66 19 55 55 S 9 15 30.09 1019 10 16.09344 0 0
4:35 pm 16:35 Sunny 82 28 66 19 58 58 SSE 10 17 30.06 1018 10 16.09344 0 0
4:55 pm 16:55 Sunny 82 28 66 19 58 58 SSE 9 15 30.06 1018 10 16.09344 0 0
5:35 pm 17:35 Partly Cloudy 81 27 66 19 62 62 SE 8 13 30.06 1018 10 16.09344 0 0
5:55 pm 17:55 Partly Cloudy 81 27 66 19 62 62 SSE 9 15 30.06 1018 10 16.09344 0 0
6:15 pm 18:15 Partly Cloudy 81 27 68 20 66 66 SSE 9 15 30.06 1018 10 16.09344 0 0
6:35 pm 18:35 Mostly Cloudy 79 26 68 20 70 70 SE 3 6 30.09 1019 10 16.09344 0 0
6:55 pm 18:55 Cloudy 79 26 68 20 70 70 Calm 30.09 1019 10 16.09344 0 0
7:15 pm 19:15 Cloudy 79 26 72 22 79 79 SE 10 17 30.06 1018 10 16.09344 0 0
7:35 pm 19:35 Partly Cloudy with Nearby Thunderstorms 79 26 70 21 74 74 SSE 9 15 30.06 1018 10 16.09344 0 0
7:55 pm 19:55 Partly Cloudy 79 26 68 20 70 70 S 10 17 30.06 1018 10 16.09344 0 0
8:15 pm 20:15 Mostly Cloudy 77 25 68 20 74 74 S 9 15 30.06 1018 10 16.09344 0 0
8:35 pm 20:35 Mostly Cloudy 77 25 68 20 74 74 S 10 17 30.06 1018 10 16.09344 0 0
8:55 pm 20:55 Partly Cloudy 75 24 70 21 83 83 S 10 17 30.06 1018 10 16.09344 0 0
9:15 pm 21:15 Partly Cloudy 73 23 70 21 89 89 S 7 11 30.06 1018 10 16.09344 0 0
9:35 pm 21:35 Clear 73 23 70 21 89 89 S 7 11 30.06 1018 7 11.265408 0 0
9:55 pm 21:55 Clear 72 22 70 21 94 94 SSW 5 7 30.09 1019 10 16.09344 0 0
10:15 pm 22:15 Partly Cloudy 72 22 68 20 88 88 S 7 11 30.06 1018 10 16.09344 0 0
10:35 pm 22:35 Clear 72 22 68 20 88 88 S 7 11 30.06 1018 10 16.09344 0 0
10:55 pm 22:55 Clear 70 21 68 20 94 94 S 6 9 30.06 1018 10 16.09344 0 0
11:15 pm 23:15 Partly Cloudy 70 21 68 20 94 94 SSW 7 11 30.06 1018 10 16.09344 0 0
11:35 pm 23:35 Partly Cloudy with Nearby Thunderstorms 70 21 68 20 94 94 SW 5 7 30.06 1018 10 16.09344 0 0
11:55 pm 23:55 Clear with Nearby Thunderstorms 70 21 68 20 94 94 SW 3 6 30.03 1017 10 16.09344 0 0

Powered by AerisWeather